User: anonymous   Login
Location: Unspecified
(0.0000°N, 0.0000°E)
Time: 19:43:23
(UTC+00:00)
Language:

FIREBIRD 3 - Orbit

View from above orbital plane
View from above orbital plane
View from above satellite
View from above satellite

Ground track
Ground track

The orbit data is extracted from the following two-line orbital elements,

1 40377U 15003B   23212.82834728  .10819241  37387-5  80657-3 0  9990
2 40377  99.0456 186.7613 0007269 195.9689 164.1377 16.40629520471746
Epoch (UTC): 31 July 2023 19:52:49
Eccentricity: 0.0007269
inclination: 99.0456°
perigee height: 159 km
apogee height: 169 km
right ascension of ascending node: 186.7613°
argument of perigee: 195.9689°
revolutions per day: 16.40629520
mean anomaly at epoch: 164.1377°
orbit number at epoch: 47174

The dashed part of the orbit path shows where the satellite is in the earth's shadow,  

DLR